Miscellaneous Local Product
Issued by NWS North Platte, NE

Home | Current Version | Previous Version | Text Only | Print | Product List | Glossary On
Versions: 1 2 3 4 5 6 7 8 9 10 11 12 13 14 15 16 17 18 19 20 21 22 23 24 25 26 27 28 29 30 31 32 33 34 35 36 37 38 39 40 41 42 43 44 45 46 47 48 49 50
000
AXUS43 KLBF 191010
MISLBF


WESTERN AND NORTH CENTRAL NEBRASKA HOURLY WEATHER ROUNDUP
NATIONAL WEATHER SERVICE NORTH PLATTE NE
500 AM CDT FRI SEP 19 2014

***STATIONS NOT REPORTING VARIABLES SUCH AS SKY/WEATHER OR
PRESSURE ARE PROVIDED BY THE NEBRASKA DEPARTMENT OF
ROADS...RAWS...AND APRS NETWORKS...AND ARE NOT UNDER
NATIONAL WEATHER SERVICE QUALITY CONTROL***

...OBSERVATIONS IN AND NEAR THE EASTERN PANHANDLE OF NEBRASKA...

CITY           SKY/WX    TMP DP  RH WIND       PRES   REMARKS
PINE RIDGE     PTCLDY    59  57  93 S7        29.79S
CHADRON        MOCLDY    68  55  63 NE9       29.80R
ALLIANCE       PTCLDY    52  51  97 SE12      29.81F
SIDNEY         CLEAR     63  51  65 SW14      29.89S
WHITECLAY        N/A     58  55  88 CALM        N/A
RUSHVILLE        N/A     58  57  95 W13         N/A
LISCO            N/A     63  50  63 N3          N/A
BIG SPRINGS      N/A     55  54  96 CALM        N/A
$$

...OBSERVATIONS IN NORTH CENTRAL NEBRASKA...

CITY           SKY/WX    TMP DP  RH WIND       PRES   REMARKS
VALENTINE      PTCLDY    62  61  96 SW9       29.76S
THEDFORD       PTCLDY    63  62  96 S7        29.83S FOG
AINSWORTH      PTCLDY    63  62  97 S17       29.78S
O`NEILL        CLOUDY    68  65  90 S14G22    29.81F
ORD            CLOUDY    66  63  90 S10       29.84S
BROKEN BOW     CLEAR     64  62  93 S10       29.84F
SPRINGVIEW       N/A     63  60  90 CALM        N/A
ROSE             N/A     67  67  99 E10         N/A
NEWPORT          N/A     67  65  96 S13         N/A
COMSTOCK         N/A     69  68  98 S12         N/A
CHAMBERS         N/A     66  64  92 S22         N/A
$$

...OBSERVATIONS IN SOUTHWEST NEBRASKA AND FAR NORTHEAST COLORADO...

CITY           SKY/WX    TMP DP  RH WIND       PRES   REMARKS
WRAY           FAIR      61  56  85 SW8       29.89S
HOLYOKE        FAIR      61  55  82 SW8       29.88S
IMPERIAL       CLEAR     55  52  89 S5        29.87S
OGALLALA       FOG       56  56  99 CALM      29.85S VSB 1/4
NORTH PLATTE   FOG       55  54  96 SE5       29.85S VSB 1/4
MCCOOK         CLEAR     55  54  96 E5        29.88S FOG
LEXINGTON      CLEAR     64  62  92 S9        29.87R
PAXTON           N/A     52  51  95 CALM        N/A
SUTHERLAND       N/A     51  49  93 S3          N/A
BRADY            N/A     59  58  95 CALM        N/A
GOTHENBURG       N/A     62  58  88 E3          N/A
CALLAWAY         N/A     61  60  97 S12         N/A
$$

...SOME WEATHER OBSERVATIONS FROM AROUND THE REGION...

CITY           SKY/WX    TMP DP  RH WIND       PRES   REMARKS
DENVER         CLEAR     67  33  28 S17       29.95F
LARAMIE        PTCLDY    48  36  63 S5        30.08S
CHEYENNE       CLEAR     57  40  52 W7        29.98F
SCOTTSBLUFF    PTCLDY    64  48  56 N6        29.82F
RAPID CITY     MOCLDY    69  51  52 N14       29.78S
PIERRE         CLOUDY    65  60  84 SE13      29.66F
WINNER         FAIR      68  63  84 S18G31    29.70S
SIOUX FALLS    CLOUDY    63  58  83 S17G23    29.85S
OMAHA          CLOUDY    63  59  87 S15       29.95F
GRAND ISLAND   CLEAR     66  62  87 S14G22    29.88F
KANSAS CITY    CLOUDY    62  61  96 SE12      30.00F FOG
WICHITA        CLEAR     65  62  90 S6        29.95S
HAYS           CLEAR     64  57  77 S12       29.93R
LIBERAL        CLEAR     59  54  82 SW7       29.99F
GOODLAND       CLEAR     63  58  83 SW12      29.93S
$$



USA.gov is the U.S. government's official web portal to all federal, state and local government web resources and services.